User: anonymous   Login
Location: Newark
(34.9500°N, 139.9667°E)
Time: 02:21:10
(UTC+00:00)
Language:

A-11 Canister half - Orbit

View from above orbital plane
View from above orbital plane
View from above satellite
View from above satellite

Ground track
Ground track

The orbit data is extracted from the following two-line orbital elements,

1    53U 60009E   19346.42048814 -.00000028  00000-0  54750-3 0  9992
2    53  47.2757 118.8437 0098145 244.5327 114.5281 12.17234298645666
Epoch (UTC): 12 December 2019 10:05:30
Eccentricity: 0.0098145
inclination: 47.2757°
perigee height: 1526 km
apogee height: 1683 km
right ascension of ascending node: 118.8437°
argument of perigee: 244.5327°
revolutions per day: 12.17234298
mean anomaly at epoch: 114.5281°
orbit number at epoch: 64566

The dashed part of the orbit path shows where the satellite is in the earth's shadow,  

DLR